Weather History for Klamath Falls, OR

Change the Weather History Date:

Tuesday, May 1, 2012

  Actual Average Record
Temperature  
Mean Temperature 43 °F 47 °F  
Max Temperature 59 °F 61 °F 77 °F (2004)
Min Temperature 26 °F 34 °F 17 °F (2008)
Degree Days  
Heating Degree Days 22 18  
Month to date heating degree days 22 18  
Since 1 July heating degree days 6165 6337  
Cooling Degree Days 0 0  
Month to date cooling degree days 0 0  
Year to date cooling degree days 0 0  
Moisture  
Dew Point 26 °F    
Average Humidity 57    
Maximum Humidity 85    
Minimum Humidity 23    
Precipitation  
Precipitation 0.00 in 0.07 in 0.44 in (1977)
Month to date precipitation 0.00 0.07  
Year to date precipitation 4.53 6.48  
Sea Level Pressure  
Sea Level Pressure 29.91 in    
Wind  
Wind Speed 8 mph (WNW)    
Max Wind Speed 25 mph    
Max Gust Speed 30 mph    
Visibility 10 miles    
Events      
T = Trace of Precipitation, MM = Missing Value Source: NWS Daily Summary

Daily Weather History Graph

Daily Weather History Graph

Search for Another Location

Airport:

Trip Planner

Search our weather history database for the weather conditions in past years. The results will help you decide how hot, cold, wet, or windy it might be!

Date:

Astronomy

May. 01, 2012 Rise Set
Actual Time 6:01 AM PDT 8:06 PM PDT
Civil Twilight 5:31 AM PDT 8:37 PM PDT
Nautical Twilight 4:53 AM PDT 9:15 PM PDT
Astronomical Twilight 4:12 AM PDT 9:56 PM PDT
Moon 3:11 PM PDT (5/1) 3:07 AM PDT (5/1)
Length of Visible Light 15h 06m
Length of Day
14h 04m
Waxing Gibbous, 75% of the Moon is Illuminated
May 1
Waxing Gibbous
May 5
Full
May 12
Last Quarter
May 20
New
May 28
First Quarter

Hourly Weather History & Observations

Time (PDT) Temp. Windchill Dew Point Humidity Pressure Visibility Wind Dir Wind Speed Gust Speed Precip Events Conditions
12:53 AM 39.0 °F 32.3 °F 30.0 °F 70% 29.94 in 10.0 mi West 10.4 mph - N/A   Clear
1:53 AM 35.1 °F 27.9 °F 30.0 °F 82% 29.95 in 10.0 mi West 9.2 mph - N/A   Clear
2:53 AM 35.1 °F 29.3 °F 27.0 °F 72% 29.95 in 10.0 mi West 6.9 mph - N/A   Clear
3:53 AM 32.0 °F 27.5 °F 26.6 °F 80% 29.98 in 10.0 mi WSW 4.6 mph - N/A   Clear
4:53 AM 28.0 °F - 25.0 °F 88% 29.97 in 10.0 mi Calm Calm - N/A   Clear
5:53 AM 28.4 °F - 24.8 °F 86% 29.98 in 10.0 mi Calm Calm - N/A   Clear
6:00 AM 26.6 °F 22.6 °F 24.8 °F 93% 29.98 in 10.0 mi East 3.5 mph - N/A   Clear
6:53 AM 28.9 °F - 25.0 °F 85% 29.97 in 10.0 mi Calm Calm - N/A   Clear
7:53 AM 37.0 °F - 28.9 °F 73% 29.96 in 10.0 mi Calm Calm - N/A   Clear
8:53 AM 41.0 °F - 28.9 °F 62% 29.95 in 10.0 mi Calm Calm - N/A   Partly Cloudy
9:53 AM 43.0 °F - 28.0 °F 56% 29.93 in 10.0 mi Calm Calm - N/A   Partly Cloudy
10:53 AM 48.0 °F - 27.0 °F 44% 29.90 in 10.0 mi Variable 4.6 mph - N/A   Scattered Clouds
11:53 AM 51.1 °F - 28.0 °F 41% 29.88 in 10.0 mi Variable 4.6 mph - N/A   Partly Cloudy
12:53 PM 54.0 °F - 27.0 °F 35% 29.85 in 10.0 mi West 8.1 mph - N/A   Partly Cloudy
1:53 PM 55.9 °F - 21.0 °F 26% 29.83 in 10.0 mi West 11.5 mph - N/A   Partly Cloudy
2:53 PM 59.0 °F - 21.0 °F 23% 29.82 in 10.0 mi West 18.4 mph 26.5 mph N/A   Partly Cloudy
3:53 PM 59.0 °F - 23.0 °F 25% 29.82 in 10.0 mi WNW 23.0 mph 29.9 mph N/A   Partly Cloudy
4:53 PM 55.9 °F - 27.0 °F 33% 29.84 in 10.0 mi WNW 21.9 mph 27.6 mph N/A   Partly Cloudy
5:53 PM 54.0 °F - 23.0 °F 30% 29.86 in 10.0 mi WNW 18.4 mph 26.5 mph N/A   Partly Cloudy
6:53 PM 50.0 °F - 24.1 °F 36% 29.87 in 10.0 mi WNW 13.8 mph 20.7 mph N/A   Partly Cloudy
7:53 PM 46.0 °F 40.6 °F 27.0 °F 47% 29.88 in 10.0 mi WNW 11.5 mph - N/A   Partly Cloudy
8:53 PM 44.1 °F 36.5 °F 26.1 °F 49% 29.88 in 10.0 mi WNW 17.3 mph - N/A   Partly Cloudy
9:53 PM 41.0 °F 35.8 °F 27.0 °F 57% 29.90 in 7.0 mi West 8.1 mph - N/A   Partly Cloudy
10:53 PM 37.9 °F 32.1 °F 28.0 °F 68% 29.92 in 7.0 mi WNW 8.1 mph - N/A   Partly Cloudy
11:53 PM 35.1 °F 30.1 °F 27.0 °F 72% 29.91 in 10.0 mi WNW 5.8 mph - N/A   Clear